EW8735 Weather Reports


time (UTC)temp
C
wind
direction
speed
KPH
gust
KPH
rain 1hr
cm
rain 24hr
cm
rain mn
cm
humidity
%
barometer
mb
20260507224553 23 341 0.0 0.0 0.00 0.00 0.00 21 1010.6
20260507223053 23 22 0.0 0.0 0.00 0.00 0.00 21 1010.7
20260507221550 24 37 0.0 0.0 0.00 0.00 0.00 25 1010.9
20260507220047 23 37 0.0 0.0 0.00 0.00 0.00 23 1011.2
20260507214548 23 58 0.0 0.0 0.00 0.00 0.00 26 1011.3
20260507213050 23 57 0.0 0.0 0.00 0.00 0.00 24 1011.5
20260507211549 23 343 0.0 0.0 0.00 0.00 0.00 31 1011.7
20260507210042 22 252 0.0 0.0 0.00 0.00 0.00 27 1011.8
20260507204536 22 244 0.0 0.0 0.00 0.00 0.00 29 1012.0
20260507203032 21 244 0.0 0.0 0.00 0.00 0.00 30 1012.1
20260507201539 21 244 0.0 0.0 0.00 0.00 0.00 29 1012.2
20260507200035 21 242 0.0 0.0 0.00 0.00 0.00 29 1012.4
20260507194528 21 243 0.0 0.0 0.00 0.00 0.00 35 1012.5
20260507193025 20 243 0.0 0.0 0.00 0.00 0.00 35 1012.5
20260507191526 20 243 0.0 0.0 0.00 0.00 0.00 36 1012.6
20260507190022 20 243 0.0 0.0 0.00 0.00 0.00 42 1012.7
20260507184520 20 243 0.0 0.0 0.00 0.00 0.00 38 1012.8
20260507183018 19 243 0.0 0.0 0.00 0.00 0.00 39 1013.0
20260507181517 18 242 0.0 0.0 0.00 0.00 0.00 38 1013.0
20260507180034 19 242 0.0 0.0 0.00 0.00 0.00 40 1013.0
20260507174519 19 243 0.0 0.0 0.00 0.00 0.00 43 1013.0
20260507173018 18 243 0.0 0.0 0.00 0.00 0.00 46 1013.1
20260507171508 17 216 0.0 0.0 0.00 0.00 0.00 50 1013.1
20260507170021 17 217 0.0 0.0 0.00 0.00 0.00 50 1013.2
20260507164504 17 216 0.0 0.0 0.00 0.00 0.00 53 1013.2
20260507163004 17 218 0.0 0.0 0.00 0.00 0.00 54 1013.3
20260507161505 17 218 0.0 0.0 0.00 0.00 0.00 51 1013.4
20260507160059 16 217 0.0 0.0 0.00 0.00 0.00 55 1013.3
20260507154557 15 218 0.0 0.0 0.00 0.00 0.00 56 1013.2
20260507153103 15 218 0.0 0.0 0.00 0.00 0.00 58 1013.3
20260507151549 13 218 0.0 0.0 0.00 0.00 0.00 62 1013.3
20260507150050 12 217 0.0 0.0 0.00 0.00 0.00 69 1013.5
20260507144546 10 217 0.0 0.0 0.00 0.00 0.00 74 1013.5
20260507143057 10 218 0.0 0.0 0.00 0.00 0.00 76 1013.4
20260507141547 8 218 0.0 0.0 0.00 0.00 0.00 76 1013.4
20260507140042 8 217 0.0 0.0 0.00 0.00 0.00 79 1013.2
20260507134540 8 217 0.0 0.0 0.00 0.00 0.00 79 1012.9
20260507133044 7 219 0.0 0.0 0.00 0.00 0.00 78 1012.6
20260507131545 8 219 0.0 0.0 0.00 0.00 0.00 76 1012.6
20260507130036 8 218 0.0 0.0 0.00 0.00 0.00 72 1012.6
20260507124528 11 218 0.0 0.0 0.00 0.00 0.00 66 1012.6
20260507123026 11 219 0.0 0.0 0.00 0.00 0.00 65 1012.4
20260507121527 11 218 0.0 0.0 0.00 0.00 0.00 65 1012.5
20260507120027 11 218 0.0 0.0 0.00 0.00 0.00 64 1012.4
20260507114524 11 218 0.0 0.0 0.00 0.00 0.00 62 1012.5
20260507113026 11 219 0.0 0.0 0.00 0.00 0.00 60 1012.5
20260507111523 11 219 0.0 0.0 0.00 0.00 0.00 61 1012.4
20260507110022 11 218 0.0 0.0 0.00 0.00 0.00 60 1012.4
20260507104521 11 218 0.0 0.0 0.00 0.00 0.00 60 1012.4
20260507103020 11 218 0.0 0.0 0.00 0.00 0.00 62 1012.3
20260507101519 10 219 0.0 0.0 0.00 0.00 0.00 66 1012.5
20260507100018 10 218 0.0 0.0 0.00 0.00 0.00 65 1012.3
20260507094517 10 219 0.0 0.0 0.00 0.00 0.00 64 1012.4
20260507093016 11 218 0.0 0.0 0.00 0.00 0.00 62 1012.5
20260507091511 12 219 0.0 0.0 0.00 0.00 0.00 58 1012.4
20260507090011 11 218 0.0 0.0 0.00 0.00 0.00 61 1012.3
20260507084529 11 218 0.0 0.0 0.00 0.00 0.00 61 1012.3
20260507083006 12 219 0.0 0.0 0.00 0.00 0.00 58 1012.3
20260507081504 12 218 0.0 0.0 0.00 0.00 0.00 57 1012.3
20260507080003 12 218 0.0 0.0 0.00 0.00 0.00 56 1012.1
20260507074608 12 218 0.0 0.0 0.00 0.00 0.00 58 1012.0
20260507073102 12 218 0.0 0.0 0.00 0.00 0.00 59 1012.1
20260507071605 12 218 0.0 0.0 0.00 0.00 0.00 58 1011.9
20260507070104 13 218 0.0 0.0 0.00 0.00 0.00 57 1012.1
20260507064556 13 219 0.0 0.0 0.00 0.00 0.00 57 1012.1
20260507063051 13 218 0.0 0.0 0.00 0.00 0.00 56 1012.0
20260507061551 13 218 0.0 0.0 0.00 0.00 0.00 56 1011.9
20260507060051 14 218 0.0 0.0 0.00 0.00 0.00 55 1011.9
20260507054609 15 218 0.0 0.0 0.00 0.00 0.00 51 1011.8
20260507053102 16 219 0.0 0.0 0.00 0.00 0.00 47 1011.8
20260507051555 17 219 0.0 0.0 0.00 0.00 0.00 43 1011.8
20260507050054 17 220 0.0 0.0 0.00 0.00 0.00 43 1011.6
20260507044555 18 214 0.0 0.0 0.00 0.00 0.00 42 1011.8
20260507043049 17 214 0.0 0.0 0.00 0.00 0.00 43 1011.8
20260507041559 18 214 0.0 0.0 0.00 0.00 0.00 42 1011.8
20260507040049 20 218 0.0 0.0 0.00 0.00 0.00 40 1011.5
20260507034548 20 224 0.0 0.0 0.00 0.00 0.00 38 1011.2
20260507033047 20 239 0.0 0.0 0.00 0.00 0.00 36 1011.1
20260507031546 21 241 0.0 0.0 0.00 0.00 0.00 36 1010.9
20260507030046 21 254 0.0 0.0 0.00 0.00 0.00 35 1010.6
20260507024551 21 228 0.0 0.0 0.00 0.00 0.00 35 1010.6
20260507023045 21 261 0.0 0.0 0.00 0.00 0.00 37 1010.5
20260507021557 21 262 0.0 0.0 0.00 0.00 0.00 37 1010.5
20260507020105 21 268 0.0 0.0 0.00 0.00 0.00 35 1010.2
20260507014606 22 287 0.0 0.0 0.00 0.00 0.00 37 1010.1
20260507013047 23 299 0.0 0.0 0.00 0.00 0.00 36 1010.0
20260507011553 23 311 0.0 0.0 0.00 0.00 0.00 36 1009.9
20260507010045 23 273 0.0 0.0 0.00 0.00 0.00 36 1009.8
20260507004541 23 273 0.0 0.0 0.00 0.00 0.00 35 1009.6
20260507003041 24 264 0.0 0.0 0.00 0.00 0.00 31 1009.4
20260507001556 25 254 0.0 0.0 0.00 0.00 0.00 32 1009.3
20260507000053 25 265 0.0 0.0 0.00 0.00 0.00 33 1009.4
20260506234558 26 261 0.0 0.0 0.00 0.00 0.00 33 1009.3
20260506233046 25 263 0.0 0.0 0.00 0.00 0.00 34 1009.2
20260506231539 25 261 0.0 0.0 0.00 0.00 0.00 31 1009.2
20260506230038 26 261 0.0 0.0 0.00 0.00 0.00 33 1009.2